Location: *
(48.8667°N, 2.3331°E)
Time: 11:10:18
(UTC+00:00)

Cosmos 1656 - Pass Details

Date: 09 April 2020
Orbit: 798 x 849 km, 71.1° (Epoch: 23 May)

Event Time Altitude Azimuth Distance (km) Brightness Sun altitude
Rises 21:23:37 0° 328° (NNW) 3,421 8.2 -24.5°
Reaches altitude 10° 21:26:09 10° 324° (NW) 2,478 7.2 -24.8°
Maximum altitude 21:31:37 51° 250° (WSW) 1,050 4.2 -25.3°
Enters shadow 21:32:52 43° 210° (SSW) 1,165 4.2 -25.5°
